TimeAKDT,TemperatureF,Dew PointF,Humidity,Sea Level PressureIn,VisibilityMPH,Wind Direction,Wind SpeedMPH,Gust SpeedMPH,PrecipitationIn,Events,Conditions,WindDirDegrees,DateUTC
12:53 AM,30.9,10.9,43,29.60,10.0,North,17.3,27.6,N/A,,Overcast,10,2012-10-31 08:53:00
1:53 AM,30.0,10.0,43,29.59,10.0,North,13.8,20.7,N/A,,Overcast,10,2012-10-31 09:53:00
2:53 AM,30.0,9.0,41,29.57,10.0,NNE,12.7,23.0,N/A,,Overcast,20,2012-10-31 10:53:00
3:53 AM,30.0,10.0,43,29.57,10.0,North,18.4,26.5,N/A,,Overcast,10,2012-10-31 11:53:00
4:53 AM,28.9,10.9,47,29.55,10.0,NNE,15.0,19.6,N/A,,Overcast,20,2012-10-31 12:53:00
5:53 AM,28.9,9.0,43,29.55,10.0,North,13.8,25.3,N/A,,Mostly Cloudy,360,2012-10-31 13:53:00
6:53 AM,28.0,9.0,45,29.54,10.0,North,12.7,25.3,N/A,,Clear,360,2012-10-31 14:53:00
7:53 AM,28.0,9.0,45,29.53,10.0,NNE,12.7,25.3,N/A,,Clear,20,2012-10-31 15:53:00
8:53 AM,27.0,10.9,51,29.54,10.0,North,13.8,19.6,N/A,,Clear,10,2012-10-31 16:53:00
9:53 AM,27.0,10.9,51,29.52,10.0,NNE,10.4,17.3,N/A,,Mostly Cloudy,20,2012-10-31 17:53:00
10:53 AM,28.0,12.0,51,29.52,10.0,North,10.4,19.6,N/A,,Overcast,10,2012-10-31 18:53:00
11:53 AM,28.9,10.9,47,29.53,10.0,NNE,11.5,20.7,N/A,,Overcast,20,2012-10-31 19:53:00
12:53 PM,28.0,10.0,47,29.54,10.0,NNE,10.4,16.1,N/A,,Clear,30,2012-10-31 20:53:00
1:53 PM,28.0,10.9,49,29.52,10.0,North,13.8,19.6,N/A,,Partly Cloudy,360,2012-10-31 21:53:00
2:53 PM,30.0,10.9,45,29.52,10.0,North,12.7,21.9,N/A,,Mostly Cloudy,10,2012-10-31 22:53:00
3:53 PM,30.0,10.9,45,29.51,10.0,North,10.4,16.1,N/A,,Clear,10,2012-10-31 23:53:00
4:53 PM,28.9,12.0,49,29.51,10.0,NNE,9.2,-,N/A,,Mostly Cloudy,20,2012-11-01 00:53:00
5:53 PM,28.9,12.9,51,29.52,10.0,ENE,6.9,-,N/A,,Scattered Clouds,60,2012-11-01 01:53:00
6:53 PM,28.0,14.0,56,29.53,10.0,Variable,6.9,-,N/A,,Overcast,0,2012-11-01 02:53:00
7:53 PM,28.0,19.0,69,29.55,5.0,North,11.5,19.6,0.00,Snow,Light Snow,10,2012-11-01 03:53:00
8:02 PM,26.6,19.4,74,29.55,3.0,NNE,11.5,19.6,0.00,Snow,Light Snow,20,2012-11-01 04:02:00
8:31 PM,26.6,21.2,80,29.55,2.5,North,9.2,16.1,0.00,Snow,Light Snow,360,2012-11-01 04:31:00
8:45 PM,26.6,19.4,74,29.55,3.0,NNE,5.8,-,0.00,Snow,Light Snow,20,2012-11-01 04:45:00
8:53 PM,26.1,19.9,78,29.56,4.0,Variable,4.6,-,0.00,Snow,Light Snow,0,2012-11-01 04:53:00
9:53 PM,27.0,19.9,75,29.56,10.0,Calm,Calm,-,0.00,,Overcast,0,2012-11-01 05:53:00
10:53 PM,27.0,19.9,75,29.58,10.0,North,8.1,-,N/A,,Mostly Cloudy,350,2012-11-01 06:53:00
11:28 PM,26.6,21.2,80,29.59,1.8,North,4.6,-,0.00,Snow,Light Snow,360,2012-11-01 07:28:00
11:37 PM,26.6,19.4,74,29.59,2.5,NNE,5.8,-,0.00,Snow,Light Snow,20,2012-11-01 07:37:00
11:49 PM,26.6,21.2,80,29.58,1.5,North,11.5,16.1,0.00,Snow,Light Snow,10,2012-11-01 07:49:00
11:53 PM,26.1,21.0,81,29.59,1.5,North,9.2,-,0.01,Snow,Light Snow,10,2012-11-01 07:53:00